Home > Weather > Holguín > Past weeks

Flag for Cuba Past Weather in Holguín, Cuba — Yesterday and Last 2 Weeks

Now
77 °F

Passing clouds.


Feels Like: 78 °F
Forecast: 76 / 88 °F
Wind: 2 mph from Northeast

Location: Holguin Civ / Mil

Current Time: Aug 26, 2016 at 6:34:36 AM

Latest Report: Aug 26, 2016 at 5:51 AM


Visibility: 6 mi

Pressure: 29.83 "Hg

Humidity: 89%

Dew Point: 73 °F

Location of HolguínLocation

Past Weather in Holguín — Graph

°F

Holguín Temperature Yesterday

Maximum temperature yesterday: 93 °F (at 1:50 PM)
Minimum temperature yesterday: 73 °F (at 4:50 AM)
Average temperature yesterday: 84 °F

High & Low Weather Summary for the Past Weeks

 TemperatureHumidityPressure
High99 °F (Aug 21, 2:51 PM)94% (Aug 12, 10:52 PM)30.07 "Hg (Aug 12, 10:52 PM)
Low72 °F (Aug 12, 10:52 PM)22% (Aug 22, 3:50 PM)29.80 "Hg (Aug 25, 4:50 PM)
Average83 °F67%29.98 "Hg
* Reported Aug 11 4:51 AM — Aug 26 4:51 AM, Holguín, Weather by CustomWeather, © 2016

Note: Actual official high and low records may vary slightly from our data, if they occured in-between our weather recording intervals... More about our weather records

Advertising

Holguín Weather History for the Previous 24 Hours

Scroll right to see more
 ConditionsComfort  
Time TempWeatherWind HumidityBarometerVisibility
4:51 AM
Fri, Aug 26
77 °FPassing clouds.1 mph89%29.83 "Hg6 mi
3:50 AM77 °FPassing clouds.2 mph89%29.83 "HgN/A
2:50 AM77 °FClear.1 mph89%29.83 "Hg10 mi
1:50 AM79 °FClear.2 mph84%29.86 "Hg10 mi
12:50 AM79 °FClear.1 mph84%29.86 "Hg10 mi
11:51 PM
Thu, Aug 25
81 °FPassing clouds.5 mph84%29.89 "HgN/A
10:50 PM82 °FPassing clouds.7 mph79%29.86 "HgN/A
9:50 PM82 °FPassing clouds.8 mph74%29.89 "HgN/A
8:50 PM84 °FPassing clouds.8 mph70%29.86 "HgN/A
7:50 PM84 °FPassing clouds.12 mph70%29.83 "HgN/A
6:50 PM88 °FPassing clouds.17 mph59%29.83 "HgN/A
5:54 PM91 °FPassing clouds.16 mph52%29.80 "HgN/A
4:50 PM93 °FScattered clouds.16 mph41%29.80 "Hg6 mi
3:51 PM93 °FScattered clouds.14 mph44%29.83 "Hg6 mi
2:53 PM93 °FScattered clouds.14 mph49%29.83 "Hg6 mi
1:50 PM93 °FPartly sunny.14 mph44%29.86 "Hg6 mi
12:51 PM91 °FScattered showers. Partly sunny.15 mph49%29.86 "Hg5 mi
11:52 AM88 °FScattered showers. Partly sunny.9 mph59%29.89 "Hg5 mi
10:51 AM90 °FPartly sunny.14 mph52%29.89 "Hg6 mi
9:50 AM86 °FPartly sunny.12 mph66%29.89 "Hg6 mi
8:51 AM82 °FPartly sunny.13 mph74%29.89 "Hg6 mi
7:52 AM79 °FPassing clouds.6 mph89%29.89 "Hg6 mi
6:51 AM75 °FLight rain. Passing clouds.2 mph89%29.89 "Hg5 mi
Weather by CustomWeather, © 2016

See weather overviewHow to use our weather pages